Location: Newark
(48.1500°N, 2.9667°W)
Time: 13:38:24
(UTC+00:00)

Altair - Pass Details

Date: 03 February 2020
Orbit: 1502 x 1682 km, 47.2° (Epoch: 25 February)

Event Time Altitude Azimuth Distance (km) Brightness Sun altitude
Rises 06:02:29 0° 220° (SW) 4,801 9.8 -16.1°
Reaches altitude 10° 06:05:41 10° 215° (SW) 3,841 9.3 -15.6°
Maximum altitude 06:14:57 48° 145° (SE) 2,067 8.5 -14.1°
Drops below altitude 10° 06:24:29 10° 75° (ENE) 3,945 10.7 -12.5°
Sets 06:27:48 0° 70° (ENE) 4,940 11.2 -12.0°
